Year,Month,Day,Hour,Minute,Value (Times are PST for temperature in C)
2008,09,23,00,00,9.60
2008,09,23,00,01,9.60
2008,09,23,00,02,9.60
2008,09,23,00,03,9.60
2008,09,23,00,04,9.60
2008,09,23,00,05,9.60
2008,09,23,00,06,9.60
2008,09,23,00,07,9.60
2008,09,23,00,08,9.60
2008,09,23,00,09,9.60
2008,09,23,00,10,9.50
2008,09,23,00,11,9.60
2008,09,23,00,12,9.50
2008,09,23,00,13,9.50
2008,09,23,00,14,9.50
2008,09,23,00,15,9.40
2008,09,23,00,16,9.50
2008,09,23,00,17,9.50
2008,09,23,00,18,9.40
2008,09,23,00,19,9.40
2008,09,23,00,20,9.40
2008,09,23,00,21,9.40
2008,09,23,00,22,9.40
2008,09,23,00,23,9.40
2008,09,23,00,24,9.40
2008,09,23,00,25,9.40
2008,09,23,00,26,9.40
2008,09,23,00,27,9.40
2008,09,23,00,28,9.40
2008,09,23,00,29,9.40
2008,09,23,00,30,9.30
2008,09,23,00,31,9.30
2008,09,23,00,32,9.30
2008,09,23,00,33,9.30
2008,09,23,00,34,9.30
2008,09,23,00,35,9.30
2008,09,23,00,36,9.30
2008,09,23,00,37,9.30
2008,09,23,00,38,9.30
2008,09,23,00,39,9.30
2008,09,23,00,40,9.30
2008,09,23,00,41,9.30
2008,09,23,00,42,9.30
2008,09,23,00,43,9.30
2008,09,23,00,44,9.30
2008,09,23,00,45,9.20
2008,09,23,00,46,9.20
2008,09,23,00,47,9.20
2008,09,23,00,48,9.20
2008,09,23,00,49,9.20
2008,09,23,00,50,9.20
2008,09,23,00,51,9.20
2008,09,23,00,52,9.20
2008,09,23,00,53,9.20
2008,09,23,00,54,9.10
2008,09,23,00,55,9.10
2008,09,23,00,56,9.10
2008,09,23,00,57,9.20
2008,09,23,00,58,9.10
2008,09,23,00,59,9.10
2008,09,23,01,00,9.10
2008,09,23,01,01,9.10
2008,09,23,01,02,9.10
2008,09,23,01,03,9.10
2008,09,23,01,04,9.10
2008,09,23,01,05,9.10
2008,09,23,01,06,9.10
2008,09,23,01,07,9.10
2008,09,23,01,08,9.10
2008,09,23,01,09,9.10
2008,09,23,01,10,9.10
2008,09,23,01,11,9.10
2008,09,23,01,12,9.10
2008,09,23,01,13,9.00
2008,09,23,01,14,9.00
2008,09,23,01,15,9.00
2008,09,23,01,16,9.00
2008,09,23,01,17,8.90
2008,09,23,01,18,8.90
2008,09,23,01,19,8.90
2008,09,23,01,20,8.90
2008,09,23,01,21,8.80
2008,09,23,01,22,8.80
2008,09,23,01,23,8.80
2008,09,23,01,24,8.80
2008,09,23,01,25,8.70
2008,09,23,01,26,8.70
2008,09,23,01,27,8.70
2008,09,23,01,28,8.60
2008,09,23,01,29,8.60
2008,09,23,01,30,8.60
2008,09,23,01,31,8.60
2008,09,23,01,32,8.60
2008,09,23,01,33,8.60
2008,09,23,01,34,8.50
2008,09,23,01,35,8.50
2008,09,23,01,36,8.40
2008,09,23,01,37,8.40
2008,09,23,01,38,8.40
2008,09,23,01,39,8.30
2008,09,23,01,40,8.30
2008,09,23,01,41,8.30
2008,09,23,01,42,8.20
2008,09,23,01,43,8.20
2008,09,23,01,44,8.20
2008,09,23,01,45,8.10
2008,09,23,01,46,8.10
2008,09,23,01,47,8.10
2008,09,23,01,48,8.10
2008,09,23,01,49,8.00
2008,09,23,01,50,8.00
2008,09,23,01,51,8.00
2008,09,23,01,52,7.90
2008,09,23,01,53,7.90
2008,09,23,01,54,7.90
2008,09,23,01,55,7.90
2008,09,23,01,56,7.90
2008,09,23,01,57,7.90
2008,09,23,01,58,7.80
2008,09,23,01,59,7.80
2008,09,23,02,00,7.80
2008,09,23,02,01,7.80
2008,09,23,02,02,7.80
2008,09,23,02,03,7.80
2008,09,23,02,04,7.80
2008,09,23,02,05,7.80
2008,09,23,02,06,7.70
2008,09,23,02,07,7.70
2008,09,23,02,08,7.60
2008,09,23,02,09,7.60
2008,09,23,02,10,7.60
2008,09,23,02,11,7.50
2008,09,23,02,12,7.50
2008,09,23,02,13,7.40
2008,09,23,02,14,7.40
2008,09,23,02,15,7.40
2008,09,23,02,16,7.40
2008,09,23,02,17,7.40
2008,09,23,02,18,7.30
2008,09,23,02,19,7.30
2008,09,23,02,20,7.30
2008,09,23,02,21,7.30
2008,09,23,02,22,7.20
2008,09,23,02,23,7.20
2008,09,23,02,24,7.20
2008,09,23,02,25,7.20
2008,09,23,02,26,7.20
2008,09,23,02,27,7.10
2008,09,23,02,28,7.10
2008,09,23,02,29,7.10
2008,09,23,02,30,7.10
2008,09,23,02,31,7.00
2008,09,23,02,32,7.00
2008,09,23,02,33,6.90
2008,09,23,02,34,6.90
2008,09,23,02,35,6.90
2008,09,23,02,36,6.80
2008,09,23,02,37,6.80
2008,09,23,02,38,6.80
2008,09,23,02,39,6.80
2008,09,23,02,40,6.70
2008,09,23,02,41,6.70
2008,09,23,02,42,6.70
2008,09,23,02,43,6.70
2008,09,23,02,44,6.60
2008,09,23,02,45,6.60
2008,09,23,02,46,6.60
2008,09,23,02,47,6.50
2008,09,23,02,48,6.50
2008,09,23,02,49,6.40
2008,09,23,02,50,6.40
2008,09,23,02,51,6.40
2008,09,23,02,52,6.30
2008,09,23,02,53,6.30
2008,09,23,02,54,6.20
2008,09,23,02,55,6.20
2008,09,23,02,56,6.20
2008,09,23,02,57,6.10
2008,09,23,02,58,6.10
2008,09,23,02,59,6.10
2008,09,23,03,00,6.00
2008,09,23,03,01,6.00
2008,09,23,03,02,5.90
2008,09,23,03,03,5.90
2008,09,23,03,04,5.90
2008,09,23,03,05,5.80
2008,09,23,03,06,5.80
2008,09,23,03,07,5.80
2008,09,23,03,08,5.70
2008,09,23,03,09,5.70
2008,09,23,03,10,5.70
2008,09,23,03,11,5.70
2008,09,23,03,12,5.70
2008,09,23,03,13,5.60
2008,09,23,03,14,5.60
2008,09,23,03,15,5.60
2008,09,23,03,16,5.60
2008,09,23,03,17,5.50
2008,09,23,03,18,5.50
2008,09,23,03,19,5.50
2008,09,23,03,20,5.50
2008,09,23,03,21,5.40
2008,09,23,03,22,5.40
2008,09,23,03,23,5.40
2008,09,23,03,24,5.30
2008,09,23,03,25,5.30
2008,09,23,03,26,5.30
2008,09,23,03,27,5.30
2008,09,23,03,28,5.30
2008,09,23,03,29,5.20
2008,09,23,03,30,5.20
2008,09,23,03,31,5.20
2008,09,23,03,32,5.20
2008,09,23,03,33,5.20
2008,09,23,03,34,5.10
2008,09,23,03,35,5.10
2008,09,23,03,36,5.10
2008,09,23,03,37,5.10
2008,09,23,03,38,5.10
2008,09,23,03,39,5.10
2008,09,23,03,40,5.00
2008,09,23,03,41,5.00
2008,09,23,03,42,4.90
2008,09,23,03,43,4.90
2008,09,23,03,44,4.90
2008,09,23,03,45,4.90
2008,09,23,03,46,4.90
2008,09,23,03,47,4.90
2008,09,23,03,48,4.90
2008,09,23,03,49,4.80
2008,09,23,03,50,4.80
2008,09,23,03,51,4.80
2008,09,23,03,52,4.80
2008,09,23,03,53,4.80
2008,09,23,03,54,4.80
2008,09,23,03,55,4.70
2008,09,23,03,56,4.70
2008,09,23,03,57,4.70
2008,09,23,03,58,4.70
2008,09,23,03,59,4.70
2008,09,23,04,00,4.70
2008,09,23,04,01,4.70
2008,09,23,04,02,4.70
2008,09,23,04,03,4.70
2008,09,23,04,04,4.70
2008,09,23,04,05,4.60
2008,09,23,04,06,4.60
2008,09,23,04,07,4.60
2008,09,23,04,08,4.60
2008,09,23,04,09,4.60
2008,09,23,04,10,4.50
2008,09,23,04,11,4.50
2008,09,23,04,12,4.40
2008,09,23,04,13,4.40
2008,09,23,04,14,4.40
2008,09,23,04,15,4.40
2008,09,23,04,16,4.40
2008,09,23,04,17,4.40
2008,09,23,04,18,4.40
2008,09,23,04,19,4.30
2008,09,23,04,20,4.30
2008,09,23,04,21,4.30
2008,09,23,04,22,4.30
2008,09,23,04,23,4.30
2008,09,23,04,24,4.30
2008,09,23,04,25,4.30
2008,09,23,04,26,4.30
2008,09,23,04,27,4.20
2008,09,23,04,28,4.20
2008,09,23,04,29,4.20
2008,09,23,04,30,4.20
2008,09,23,04,31,4.10
2008,09,23,04,32,4.10
2008,09,23,04,33,4.10
2008,09,23,04,34,4.10
2008,09,23,04,35,4.10
2008,09,23,04,36,4.10
2008,09,23,04,37,4.00
2008,09,23,04,38,4.00
2008,09,23,04,39,4.00
2008,09,23,04,40,3.90
2008,09,23,04,41,3.90
2008,09,23,04,42,3.90
2008,09,23,04,43,3.90
2008,09,23,04,44,3.90
2008,09,23,04,45,3.90
2008,09,23,04,46,3.80
2008,09,23,04,47,3.80
2008,09,23,04,48,3.80
2008,09,23,04,49,3.80
2008,09,23,04,50,3.80
2008,09,23,04,51,3.80
2008,09,23,04,52,3.80
2008,09,23,04,53,3.80
2008,09,23,04,54,3.80
2008,09,23,04,55,3.80
2008,09,23,04,56,3.70
2008,09,23,04,57,3.70
2008,09,23,04,58,3.70
2008,09,23,04,59,3.70
2008,09,23,05,00,3.70
2008,09,23,05,01,3.70
2008,09,23,05,02,3.70
2008,09,23,05,03,3.70
2008,09,23,05,04,3.70
2008,09,23,05,05,3.70
2008,09,23,05,06,3.70
2008,09,23,05,07,3.70
2008,09,23,05,08,3.70
2008,09,23,05,09,3.70
2008,09,23,05,10,3.70
2008,09,23,05,11,3.70
2008,09,23,05,12,3.70
2008,09,23,05,13,3.70
2008,09,23,05,14,3.70
2008,09,23,05,15,3.70
2008,09,23,05,16,3.70
2008,09,23,05,17,3.70
2008,09,23,05,18,3.70
2008,09,23,05,19,3.70
2008,09,23,05,20,3.70
2008,09,23,05,21,3.60
2008,09,23,05,22,3.60
2008,09,23,05,23,3.60
2008,09,23,05,24,3.60
2008,09,23,05,25,3.60
2008,09,23,05,26,3.60
2008,09,23,05,27,3.60
2008,09,23,05,28,3.60
2008,09,23,05,29,3.70
2008,09,23,05,30,3.70
2008,09,23,05,31,3.70
2008,09,23,05,32,3.80
2008,09,23,05,33,3.80
2008,09,23,05,34,3.80
2008,09,23,05,35,3.90
2008,09,23,05,36,4.00
2008,09,23,05,37,4.00
2008,09,23,05,38,4.10
2008,09,23,05,39,4.10
2008,09,23,05,40,4.10
2008,09,23,05,41,4.20
2008,09,23,05,42,4.10
2008,09,23,05,43,4.10
2008,09,23,05,44,4.10
2008,09,23,05,45,4.10
2008,09,23,05,46,4.00
2008,09,23,05,47,3.90
2008,09,23,05,48,3.90
2008,09,23,05,49,3.80
2008,09,23,05,50,3.80
2008,09,23,05,51,3.80
2008,09,23,05,52,3.80
2008,09,23,05,53,3.80
2008,09,23,05,54,3.80
2008,09,23,05,55,3.80
2008,09,23,05,56,3.80
2008,09,23,05,57,3.80
2008,09,23,05,58,3.80
2008,09,23,05,59,3.70
2008,09,23,06,00,3.70
2008,09,23,06,01,3.70
2008,09,23,06,02,3.70
2008,09,23,06,03,3.70
2008,09,23,06,04,3.70
2008,09,23,06,05,3.70
2008,09,23,06,06,3.70
2008,09,23,06,07,3.70
2008,09,23,06,08,3.70
2008,09,23,06,09,3.70
2008,09,23,06,10,3.60
2008,09,23,06,11,3.60
2008,09,23,06,12,3.60
2008,09,23,06,13,3.60
2008,09,23,06,14,3.60
2008,09,23,06,15,3.60
2008,09,23,06,16,3.50
2008,09,23,06,17,3.50
2008,09,23,06,18,3.50
2008,09,23,06,19,3.40
2008,09,23,06,20,3.40
2008,09,23,06,21,3.30
2008,09,23,06,22,3.30
2008,09,23,06,23,3.30
2008,09,23,06,24,3.30
2008,09,23,06,25,3.30
2008,09,23,06,26,3.30
2008,09,23,06,27,3.30
2008,09,23,06,28,3.30
2008,09,23,06,29,3.20
2008,09,23,06,30,3.20
2008,09,23,06,31,3.20
2008,09,23,06,32,3.20
2008,09,23,06,33,3.20
2008,09,23,06,34,3.20
2008,09,23,06,35,3.20
2008,09,23,06,36,3.10
2008,09,23,06,37,3.10
2008,09,23,06,38,3.10
2008,09,23,06,39,3.10
2008,09,23,06,40,3.10
2008,09,23,06,41,3.00
2008,09,23,06,42,3.00
2008,09,23,06,43,3.00
2008,09,23,06,44,3.00
2008,09,23,06,45,2.90
2008,09,23,06,46,2.90
2008,09,23,06,47,2.90
2008,09,23,06,48,2.90
2008,09,23,06,49,2.90
2008,09,23,06,50,2.90
2008,09,23,06,51,2.80
2008,09,23,06,52,2.80
2008,09,23,06,53,2.80
2008,09,23,06,54,2.80
2008,09,23,06,55,2.80
2008,09,23,06,56,2.80
2008,09,23,06,57,2.80
2008,09,23,06,58,2.80
2008,09,23,06,59,2.80
2008,09,23,07,00,2.80
2008,09,23,07,01,2.90
2008,09,23,07,02,2.90
2008,09,23,07,03,2.90
2008,09,23,07,04,2.90
2008,09,23,07,05,2.90
2008,09,23,07,06,3.00
2008,09,23,07,07,3.00
2008,09,23,07,08,3.00
2008,09,23,07,09,3.00
2008,09,23,07,10,3.00
2008,09,23,07,11,3.00
2008,09,23,07,12,3.00
2008,09,23,07,13,3.00
2008,09,23,07,14,3.00
2008,09,23,07,15,3.00
2008,09,23,07,16,3.00
2008,09,23,07,17,3.00
2008,09,23,07,18,3.00
2008,09,23,07,19,3.00
2008,09,23,07,20,3.00
2008,09,23,07,21,3.10
2008,09,23,07,22,3.10
2008,09,23,07,23,3.20
2008,09,23,07,24,3.30
2008,09,23,07,25,3.30
2008,09,23,07,26,3.40
2008,09,23,07,27,3.50
2008,09,23,07,28,3.50
2008,09,23,07,29,3.60
2008,09,23,07,30,3.60
2008,09,23,07,31,3.60
2008,09,23,07,32,3.60
2008,09,23,07,33,3.60
2008,09,23,07,34,3.70
2008,09,23,07,35,3.70
2008,09,23,07,36,3.80
2008,09,23,07,37,3.90
2008,09,23,07,38,3.90
2008,09,23,07,39,4.00
2008,09,23,07,40,4.10
2008,09,23,07,41,4.20
2008,09,23,07,42,4.20
2008,09,23,07,43,4.30
2008,09,23,07,44,4.40
2008,09,23,07,45,4.40
2008,09,23,07,46,4.50
2008,09,23,07,47,4.50
2008,09,23,07,48,4.60
2008,09,23,07,49,4.60
2008,09,23,07,50,4.60
2008,09,23,07,51,4.60
2008,09,23,07,52,4.60
2008,09,23,07,53,4.50
2008,09,23,07,54,4.50
2008,09,23,07,55,4.50
2008,09,23,07,56,4.60
2008,09,23,07,57,4.60
2008,09,23,07,58,4.60
2008,09,23,07,59,4.50
2008,09,23,08,00,4.50
2008,09,23,08,01,4.50
2008,09,23,08,02,4.50
2008,09,23,08,03,4.60
2008,09,23,08,04,4.60
2008,09,23,08,05,4.60
2008,09,23,08,06,4.60
2008,09,23,08,07,4.70
2008,09,23,08,08,4.70
2008,09,23,08,09,4.70
2008,09,23,08,10,4.80
2008,09,23,08,11,4.80
2008,09,23,08,12,4.80
2008,09,23,08,13,4.80
2008,09,23,08,14,4.80
2008,09,23,08,15,4.90
2008,09,23,08,16,4.90
2008,09,23,08,17,4.90
2008,09,23,08,18,4.90
2008,09,23,08,19,4.90
2008,09,23,08,20,5.00
2008,09,23,08,21,5.00
2008,09,23,08,22,5.10
2008,09,23,08,23,5.10
2008,09,23,08,24,5.10
2008,09,23,08,25,5.20
2008,09,23,08,26,5.30
2008,09,23,08,27,5.40
2008,09,23,08,28,5.50
2008,09,23,08,29,5.60
2008,09,23,08,30,5.70
2008,09,23,08,31,5.90
2008,09,23,08,32,6.00
2008,09,23,08,33,6.10
2008,09,23,08,34,6.20
2008,09,23,08,35,6.30
2008,09,23,08,36,6.40
2008,09,23,08,37,6.50
2008,09,23,08,38,6.70
2008,09,23,08,39,6.80
2008,09,23,08,40,6.90
2008,09,23,08,41,7.10
2008,09,23,08,42,7.20
2008,09,23,08,43,7.40
2008,09,23,08,44,7.50
2008,09,23,08,45,7.70
2008,09,23,08,46,7.80
2008,09,23,08,47,7.90
2008,09,23,08,48,8.00
2008,09,23,08,49,8.20
2008,09,23,08,50,8.30
2008,09,23,08,51,8.40
2008,09,23,08,52,8.50
2008,09,23,08,53,8.60
2008,09,23,08,54,8.70
2008,09,23,08,55,8.80
2008,09,23,08,56,9.00
2008,09,23,08,57,9.10
2008,09,23,08,58,9.20
2008,09,23,08,59,9.30
2008,09,23,09,00,9.40
2008,09,23,09,01,9.50
2008,09,23,09,02,9.60
2008,09,23,09,03,9.60
2008,09,23,09,04,9.70
2008,09,23,09,05,9.70
2008,09,23,09,06,9.80
2008,09,23,09,07,9.90
2008,09,23,09,08,10.00
2008,09,23,09,09,10.10
2008,09,23,09,10,10.20
2008,09,23,09,11,10.30
2008,09,23,09,12,10.40
2008,09,23,09,13,10.50
2008,09,23,09,14,10.60
2008,09,23,09,15,10.60
2008,09,23,09,16,10.70
2008,09,23,09,17,10.80
2008,09,23,09,18,10.80
2008,09,23,09,19,10.70
2008,09,23,09,20,10.70
2008,09,23,09,21,10.70
2008,09,23,09,22,10.70
2008,09,23,09,23,10.70
2008,09,23,09,24,10.70
2008,09,23,09,25,10.70
2008,09,23,09,26,10.70
2008,09,23,09,27,10.70
2008,09,23,09,28,10.70
2008,09,23,09,29,10.70
2008,09,23,09,30,10.70
2008,09,23,09,31,10.80
2008,09,23,09,32,10.80
2008,09,23,09,33,11.00
2008,09,23,09,34,11.10
2008,09,23,09,35,11.20
2008,09,23,09,36,11.30
2008,09,23,09,37,11.50
2008,09,23,09,38,11.60
2008,09,23,09,39,11.60
2008,09,23,09,40,11.60
2008,09,23,09,41,11.70
2008,09,23,09,42,11.80
2008,09,23,09,43,11.90
2008,09,23,09,44,11.90
2008,09,23,09,45,12.00
2008,09,23,09,46,12.00
2008,09,23,09,47,12.10
2008,09,23,09,48,12.20
2008,09,23,09,49,12.20
2008,09,23,09,50,12.30
2008,09,23,09,51,12.30
2008,09,23,09,52,12.30
2008,09,23,09,53,12.30
2008,09,23,09,54,12.30
2008,09,23,09,55,12.30
2008,09,23,09,56,12.30
2008,09,23,09,57,12.30
2008,09,23,09,58,12.30
2008,09,23,09,59,12.30
2008,09,23,10,00,12.20
2008,09,23,10,01,12.10
2008,09,23,10,02,12.00
2008,09,23,10,03,11.90
2008,09,23,10,04,11.90
2008,09,23,10,05,11.90
2008,09,23,10,06,11.90
2008,09,23,10,07,11.90
2008,09,23,10,08,11.80
2008,09,23,10,09,11.60
2008,09,23,10,10,11.40
2008,09,23,10,11,11.30
2008,09,23,10,12,11.30
2008,09,23,10,13,11.40
2008,09,23,10,14,11.50
2008,09,23,10,15,11.60
2008,09,23,10,16,11.70
2008,09,23,10,17,11.70
2008,09,23,10,18,11.70
2008,09,23,10,19,11.70
2008,09,23,10,20,11.60
2008,09,23,10,21,11.60
2008,09,23,10,22,11.70
2008,09,23,10,23,11.70
2008,09,23,10,24,11.80
2008,09,23,10,25,11.90
2008,09,23,10,26,12.00
2008,09,23,10,27,12.00
2008,09,23,10,28,12.00
2008,09,23,10,29,12.00
2008,09,23,10,30,11.90
2008,09,23,10,31,12.00
2008,09,23,10,32,12.00
2008,09,23,10,33,12.00
2008,09,23,10,34,12.00
2008,09,23,10,35,12.00
2008,09,23,10,36,12.10
2008,09,23,10,37,12.30
2008,09,23,10,38,12.30
2008,09,23,10,39,12.30
2008,09,23,10,40,12.30
2008,09,23,10,41,12.40
2008,09,23,10,42,12.50
2008,09,23,10,43,12.50
2008,09,23,10,44,12.60
2008,09,23,10,45,12.60
2008,09,23,10,46,12.60
2008,09,23,10,47,12.70
2008,09,23,10,48,12.70
2008,09,23,10,49,12.60
2008,09,23,10,50,12.60
2008,09,23,10,51,12.60
2008,09,23,10,52,12.60
2008,09,23,10,53,12.70
2008,09,23,10,54,12.70
2008,09,23,10,55,12.70
2008,09,23,10,56,12.60
2008,09,23,10,57,12.50
2008,09,23,10,58,12.30
2008,09,23,10,59,12.10
2008,09,23,11,00,12.00
2008,09,23,11,01,11.90
2008,09,23,11,02,11.80
2008,09,23,11,03,11.80
2008,09,23,11,04,11.80
2008,09,23,11,05,11.80
2008,09,23,11,06,11.80
2008,09,23,11,07,11.80
2008,09,23,11,08,11.80
2008,09,23,11,09,11.80
2008,09,23,11,10,11.90
2008,09,23,11,11,12.00
2008,09,23,11,12,12.10
2008,09,23,11,13,12.20
2008,09,23,11,14,12.30
2008,09,23,11,15,12.30
2008,09,23,11,16,12.30
2008,09,23,11,17,12.40
2008,09,23,11,18,12.40
2008,09,23,11,19,12.40
2008,09,23,11,20,12.30
2008,09,23,11,21,12.30
2008,09,23,11,22,12.20
2008,09,23,11,23,12.20
2008,09,23,11,24,12.10
2008,09,23,11,25,12.10
2008,09,23,11,26,12.20
2008,09,23,11,27,12.30
2008,09,23,11,28,12.30
2008,09,23,11,29,12.40
2008,09,23,11,30,12.40
2008,09,23,11,31,12.40
2008,09,23,11,32,12.40
2008,09,23,11,33,12.50
2008,09,23,11,34,12.70
2008,09,23,11,35,12.70
2008,09,23,11,36,12.60
2008,09,23,11,37,12.50
2008,09,23,11,38,12.40
2008,09,23,11,39,12.30
2008,09,23,11,40,12.30
2008,09,23,11,41,12.40
2008,09,23,11,42,12.60
2008,09,23,11,43,12.70
2008,09,23,11,44,12.80
2008,09,23,11,45,12.80
2008,09,23,11,46,12.80
2008,09,23,11,47,12.60
2008,09,23,11,48,12.60
2008,09,23,11,49,12.60
2008,09,23,11,50,12.60
2008,09,23,11,51,12.60
2008,09,23,11,52,12.70
2008,09,23,11,53,12.80
2008,09,23,11,54,12.80
2008,09,23,11,55,12.70
2008,09,23,11,56,12.60
2008,09,23,11,57,12.50
2008,09,23,11,58,12.50
2008,09,23,11,59,12.50
2008,09,23,12,00,12.60
2008,09,23,12,01,12.60
2008,09,23,12,02,12.70
2008,09,23,12,03,12.80
2008,09,23,12,04,12.90
2008,09,23,12,05,13.00
2008,09,23,12,06,13.00
2008,09,23,12,07,13.20
2008,09,23,12,08,13.30
2008,09,23,12,09,13.50
2008,09,23,12,10,13.60
2008,09,23,12,11,13.80
2008,09,23,12,12,13.80
2008,09,23,12,13,13.90
2008,09,23,12,14,13.90
2008,09,23,12,15,13.90
2008,09,23,12,16,13.90
2008,09,23,12,17,13.90
2008,09,23,12,18,13.90
2008,09,23,12,19,13.90
2008,09,23,12,20,13.90
2008,09,23,12,21,13.90
2008,09,23,12,22,13.90
2008,09,23,12,23,13.90
2008,09,23,12,24,13.80
2008,09,23,12,25,13.80
2008,09,23,12,26,13.90
2008,09,23,12,27,13.90
2008,09,23,12,28,14.00
2008,09,23,12,29,14.00
2008,09,23,12,30,13.90
2008,09,23,12,31,13.80
2008,09,23,12,32,13.60
2008,09,23,12,33,13.60
2008,09,23,12,34,13.70
2008,09,23,12,35,13.80
2008,09,23,12,36,14.00
2008,09,23,12,37,14.00
2008,09,23,12,38,14.10
2008,09,23,12,39,14.20
2008,09,23,12,40,14.20
2008,09,23,12,41,14.30
2008,09,23,12,42,14.30
2008,09,23,12,43,14.30
2008,09,23,12,44,14.30
2008,09,23,12,45,14.30
2008,09,23,12,46,14.30
2008,09,23,12,47,14.20
2008,09,23,12,48,14.20
2008,09,23,12,49,14.20
2008,09,23,12,50,14.10
2008,09,23,12,51,14.20
2008,09,23,12,52,14.30
2008,09,23,12,53,14.30
2008,09,23,12,54,14.50
2008,09,23,12,55,14.60
2008,09,23,12,56,14.70
2008,09,23,12,57,14.90
2008,09,23,12,58,15.00
2008,09,23,12,59,15.10
2008,09,23,13,00,15.20
2008,09,23,13,01,15.20
2008,09,23,13,02,15.20
2008,09,23,13,03,15.20
2008,09,23,13,04,15.00
2008,09,23,13,05,15.00
2008,09,23,13,06,14.80
2008,09,23,13,07,14.70
2008,09,23,13,08,14.60
2008,09,23,13,09,14.60
2008,09,23,13,10,14.60
2008,09,23,13,11,14.50
2008,09,23,13,12,14.40
2008,09,23,13,13,14.30
2008,09,23,13,14,14.20
2008,09,23,13,15,14.10
2008,09,23,13,16,14.10
2008,09,23,13,17,14.10
2008,09,23,13,18,14.10
2008,09,23,13,19,14.20
2008,09,23,13,20,14.30
2008,09,23,13,21,14.40
2008,09,23,13,22,14.40
2008,09,23,13,23,14.40
2008,09,23,13,24,14.50
2008,09,23,13,25,14.40
2008,09,23,13,26,14.40
2008,09,23,13,27,14.30
2008,09,23,13,28,14.30
2008,09,23,13,29,14.30
2008,09,23,13,30,14.20
2008,09,23,13,31,14.20
2008,09,23,13,32,14.10
2008,09,23,13,33,14.10
2008,09,23,13,34,14.10
2008,09,23,13,35,14.10
2008,09,23,13,36,14.10
2008,09,23,13,37,14.10
2008,09,23,13,38,14.10
2008,09,23,13,39,14.10
2008,09,23,13,40,14.20
2008,09,23,13,41,14.20
2008,09,23,13,42,14.30
2008,09,23,13,43,14.30
2008,09,23,13,44,14.40
2008,09,23,13,45,14.40
2008,09,23,13,46,14.50
2008,09,23,13,47,14.50
2008,09,23,13,48,14.50
2008,09,23,13,49,14.60
2008,09,23,13,50,14.70
2008,09,23,13,51,14.80
2008,09,23,13,52,14.90
2008,09,23,13,53,15.00
2008,09,23,13,54,15.00
2008,09,23,13,55,15.00
2008,09,23,13,56,15.00
2008,09,23,13,57,15.00
2008,09,23,13,58,15.00
2008,09,23,13,59,15.00
2008,09,23,14,00,15.00
2008,09,23,14,01,15.00
2008,09,23,14,02,15.00
2008,09,23,14,03,15.00
2008,09,23,14,04,15.10
2008,09,23,14,05,15.10
2008,09,23,14,06,15.10
2008,09,23,14,07,15.10
2008,09,23,14,08,15.00
2008,09,23,14,09,15.00
2008,09,23,14,10,15.00
2008,09,23,14,11,14.80
2008,09,23,14,12,14.80
2008,09,23,14,13,14.60
2008,09,23,14,14,14.60
2008,09,23,14,15,14.60
2008,09,23,14,16,14.60
2008,09,23,14,17,14.60
2008,09,23,14,18,14.50
2008,09,23,14,19,14.60
2008,09,23,14,20,14.60
2008,09,23,14,21,14.60
2008,09,23,14,22,14.60
2008,09,23,14,23,14.70
2008,09,23,14,24,14.80
2008,09,23,14,25,14.90
2008,09,23,14,26,15.00
2008,09,23,14,27,15.00
2008,09,23,14,28,15.00
2008,09,23,14,29,15.00
2008,09,23,14,30,15.00
2008,09,23,14,31,14.90
2008,09,23,14,32,14.80
2008,09,23,14,33,14.70
2008,09,23,14,34,14.60
2008,09,23,14,35,14.50
2008,09,23,14,36,14.40
2008,09,23,14,37,14.40
2008,09,23,14,38,14.40
2008,09,23,14,39,14.30
2008,09,23,14,40,14.30
2008,09,23,14,41,14.20
2008,09,23,14,42,14.20
2008,09,23,14,43,14.20
2008,09,23,14,44,14.20
2008,09,23,14,45,14.20
2008,09,23,14,46,14.30
2008,09,23,14,47,14.30
2008,09,23,14,48,14.30
2008,09,23,14,49,14.30
2008,09,23,14,50,14.30
2008,09,23,14,51,14.30
2008,09,23,14,52,14.30
2008,09,23,14,53,14.30
2008,09,23,14,54,14.30
2008,09,23,14,55,14.30
2008,09,23,14,56,14.30
2008,09,23,14,57,14.30
2008,09,23,14,58,14.30
2008,09,23,14,59,14.20
2008,09,23,15,00,14.20
2008,09,23,15,01,14.20
2008,09,23,15,02,14.20
2008,09,23,15,03,14.20
2008,09,23,15,04,14.10
2008,09,23,15,05,14.10
2008,09,23,15,06,14.10
2008,09,23,15,07,14.20
2008,09,23,15,08,14.20
2008,09,23,15,09,14.20
2008,09,23,15,10,14.20
2008,09,23,15,11,14.20
2008,09,23,15,12,14.10
2008,09,23,15,13,14.10
2008,09,23,15,14,14.00
2008,09,23,15,15,14.00
2008,09,23,15,16,14.00
2008,09,23,15,17,13.90
2008,09,23,15,18,13.90
2008,09,23,15,19,13.90
2008,09,23,15,20,13.80
2008,09,23,15,21,13.80
2008,09,23,15,22,13.70
2008,09,23,15,23,13.60
2008,09,23,15,24,13.60
2008,09,23,15,25,13.60
2008,09,23,15,26,13.60
2008,09,23,15,27,13.60
2008,09,23,15,28,13.60
2008,09,23,15,29,13.60
2008,09,23,15,30,13.70
2008,09,23,15,31,13.70
2008,09,23,15,32,13.70
2008,09,23,15,33,13.80
2008,09,23,15,34,13.80
2008,09,23,15,35,13.90
2008,09,23,15,36,13.90
2008,09,23,15,37,14.00
2008,09,23,15,38,14.00
2008,09,23,15,39,14.00
2008,09,23,15,40,14.10
2008,09,23,15,41,14.10
2008,09,23,15,42,14.10
2008,09,23,15,43,14.10
2008,09,23,15,44,14.10
2008,09,23,15,45,14.20
2008,09,23,15,46,14.20
2008,09,23,15,47,14.20
2008,09,23,15,48,14.30
2008,09,23,15,49,14.20
2008,09,23,15,50,14.20
2008,09,23,15,51,14.20
2008,09,23,15,52,14.10
2008,09,23,15,53,14.10
2008,09,23,15,54,14.00
2008,09,23,15,55,14.00
2008,09,23,15,56,13.90
2008,09,23,15,57,13.90
2008,09,23,15,58,13.90
2008,09,23,15,59,13.80
2008,09,23,16,00,13.80
2008,09,23,16,01,13.80
2008,09,23,16,02,13.80
2008,09,23,16,03,13.80
2008,09,23,16,04,13.80
2008,09,23,16,05,13.80
2008,09,23,16,06,13.80
2008,09,23,16,07,13.80
2008,09,23,16,08,13.80
2008,09,23,16,09,13.80
2008,09,23,16,10,13.80
2008,09,23,16,11,13.80
2008,09,23,16,12,13.80
2008,09,23,16,13,13.80
2008,09,23,16,14,13.80
2008,09,23,16,15,13.80
2008,09,23,16,16,13.80
2008,09,23,16,17,13.80
2008,09,23,16,18,13.70
2008,09,23,16,19,13.70
2008,09,23,16,20,13.70
2008,09,23,16,21,13.70
2008,09,23,16,22,13.70
2008,09,23,16,23,13.70
2008,09,23,16,24,13.70
2008,09,23,16,25,13.80
2008,09,23,16,26,13.80
2008,09,23,16,27,13.80
2008,09,23,16,28,13.80
2008,09,23,16,29,13.80
2008,09,23,16,30,13.90
2008,09,23,16,31,13.90
2008,09,23,16,32,14.00
2008,09,23,16,33,14.00
2008,09,23,16,34,14.10
2008,09,23,16,35,14.10
2008,09,23,16,36,14.10
2008,09,23,16,37,14.10
2008,09,23,16,38,14.10
2008,09,23,16,39,14.10
2008,09,23,16,40,14.10
2008,09,23,16,41,14.20
2008,09,23,16,42,14.20
2008,09,23,16,43,14.20
2008,09,23,16,44,14.10
2008,09,23,16,45,14.10
2008,09,23,16,46,14.10
2008,09,23,16,47,14.10
2008,09,23,16,48,14.10
2008,09,23,16,49,14.10
2008,09,23,16,50,14.10
2008,09,23,16,51,14.10
2008,09,23,16,52,14.00
2008,09,23,16,53,14.00
2008,09,23,16,54,14.00
2008,09,23,16,55,14.00
2008,09,23,16,56,14.00
2008,09,23,16,57,14.00
2008,09,23,16,58,14.00
2008,09,23,16,59,14.00
2008,09,23,17,00,14.00
2008,09,23,17,01,14.00
2008,09,23,17,02,13.90
2008,09,23,17,03,13.90
2008,09,23,17,04,13.90
2008,09,23,17,05,13.90
2008,09,23,17,06,13.90
2008,09,23,17,07,13.90
2008,09,23,17,08,13.90
2008,09,23,17,09,13.80
2008,09,23,17,10,13.80
2008,09,23,17,11,13.80
2008,09,23,17,12,13.80
2008,09,23,17,13,13.80
2008,09,23,17,14,13.80
2008,09,23,17,15,13.80
2008,09,23,17,16,13.80
2008,09,23,17,17,13.80
2008,09,23,17,18,13.80
2008,09,23,17,19,13.80
2008,09,23,17,20,13.80
2008,09,23,17,21,13.80
2008,09,23,17,22,13.80
2008,09,23,17,23,13.80
2008,09,23,17,24,13.80
2008,09,23,17,25,13.80
2008,09,23,17,26,13.80
2008,09,23,17,27,13.80
2008,09,23,17,28,13.80
2008,09,23,17,29,13.80
2008,09,23,17,30,13.80
2008,09,23,17,31,13.80
2008,09,23,17,32,13.80
2008,09,23,17,33,13.70
2008,09,23,17,34,13.70
2008,09,23,17,35,13.70
2008,09,23,17,36,13.70
2008,09,23,17,37,13.70
2008,09,23,17,38,13.70
2008,09,23,17,39,13.70
2008,09,23,17,40,13.70
2008,09,23,17,41,13.70
2008,09,23,17,42,13.70
2008,09,23,17,43,13.70